Location: Peterborough
(44.3091°N, 78.3197°W)
Time: 20:18:20
(UTC-04:00)

Vanguard 2 Rocket - Pass Details

Date: 26 March 2023
Orbit: 554 x 3314 km, 32.9° (Epoch: 06 June)

Event Time Altitude Azimuth Distance (km) Brightness Sun altitude
Rises 00:49:54 0° 268° (W) 4,825 10.7 -43.1°
Reaches altitude 10° 00:52:53 10° 260° (W) 4,167 10.2 -43.2°
Enters shadow 00:54:02 14° 257° (WSW) 3,948 10.0 -43.3°
